CW8809 Weather Reports


time (UTC)temp
C
wind
direction
speed
KPH
gust
KPH
rain 1hr
cm
rain 24hr
cm
rain mn
cm
humidity
%
barometer
mb
20260504081108 11 315 0.0 0.0 0.00 1.19 1.02 84 1017.4
20260504080106 11 315 0.0 0.0 0.00 1.35 1.02 83 1016.8
20260504045819 12 270 0.0 0.0 0.00 1.30 0.97 84 1015.7
20260504044817 13 292 0.0 0.0 0.00 1.30 0.97 84 1015.7
20260504043815 12 292 0.0 0.0 0.00 1.30 0.97 84 1015.7
20260504042814 13 337 0.0 0.0 0.00 1.30 0.97 84 1016.1
20260504041811 13 0 0.0 0.0 0.00 1.30 0.97 81 1015.7
20260504040810 13 270 0.0 0.0 0.00 1.30 0.97 80 1015.8
20260504035809 13 270 0.0 0.0 0.00 1.30 0.97 79 1015.7
20260504034807 13 292 0.0 0.0 0.00 1.30 0.97 79 1015.8
20260504033805 13 270 0.0 0.0 0.00 1.30 0.97 81 1015.8
20260504032803 13 157 0.0 9.7 0.00 1.30 0.97 82 1015.8
20260504031729 14 292 9.7 9.7 0.00 1.30 0.97 82 1015.9
20260504030727 14 292 0.0 0.0 0.00 1.30 0.97 82 1016.0
20260504025725 14 315 0.0 0.0 0.05 1.30 0.97 83 1016.0
20260504024723 14 135 0.0 0.0 0.05 1.30 0.97 82 1016.0
20260504023649 14 270 0.0 0.0 0.05 1.30 0.97 81 1016.3
20260504022647 14 315 0.0 0.0 0.05 1.30 0.97 79 1016.3
20260504021645 14 270 0.0 0.0 0.05 1.30 0.97 78 1016.7
20260504020643 14 225 0.0 4.8 0.05 1.30 0.97 76 1017.0
20260504015641 14 292 4.8 4.8 0.05 1.30 0.97 73 1017.0
20260504014639 14 337 0.0 0.0 0.05 1.30 0.97 73 1017.3
20260504013637 14 270 0.0 1.6 0.05 1.24 0.91 72 1017.3
20260504012634 14 225 0.0 0.0 0.05 1.24 0.91 72 1017.9
20260504011633 14 247 0.0 3.2 0.05 1.24 0.91 73 1017.9
20260504010632 14 292 3.2 3.2 0.05 1.24 0.91 75 1018.0
20260504005557 14 270 0.0 0.0 0.05 1.24 0.91 74 1018.0
20260504004555 14 270 0.0 0.0 0.05 1.24 0.91 72 1017.9
20260504003521 14 315 0.0 0.0 0.05 1.24 0.91 73 1018.3
20260504002519 14 315 0.0 0.0 0.05 1.19 0.86 73 1018.3
20260504001517 14 337 0.0 0.0 0.05 1.19 0.86 73 1017.9
20260504000443 14 337 0.0 0.0 0.05 1.19 0.86 69 1018.2
20260503235440 14 337 0.0 0.0 0.15 1.19 0.86 68 1017.9
20260503234406 14 292 0.0 0.0 0.15 1.19 0.86 69 1017.9
20260503233302 14 292 3.2 3.2 0.15 1.19 0.86 69 1017.9
20260503232300 14 0 0.0 0.0 0.15 1.14 0.81 69 1017.9
20260503231257 14 0 0.0 0.0 0.15 1.14 0.81 70 1017.6
20260503230255 14 315 0.0 0.0 0.25 1.14 0.81 66 1017.6
20260503225253 14 315 0.0 0.0 0.25 1.14 0.81 64 1017.6
20260503224251 14 292 0.0 0.0 0.25 1.09 0.76 64 1017.6
20260503223249 14 337 0.0 0.0 0.25 1.09 0.76 64 1017.5
20260503222247 14 292 0.0 1.6 0.20 1.04 0.71 65 1017.5
20260503221244 13 292 1.6 1.6 0.15 0.99 0.66 64 1017.9
20260503220243 13 315 0.0 0.0 0.15 0.99 0.66 65 1017.9
20260503215209 13 337 0.0 0.0 0.05 0.89 0.56 66 1017.9
20260503214206 14 292 0.0 0.0 0.00 0.84 0.51 66 1017.9
20260503213205 13 337 0.0 0.0 0.00 0.84 0.51 66 1017.9
20260503212202 13 337 0.0 0.0 0.00 0.84 0.51 65 1017.9
20260503211200 13 292 0.0 0.0 0.00 0.84 0.51 64 1017.9
20260503210158 13 0 0.0 0.0 0.00 0.84 0.51 64 1017.9
20260503205156 13 315 0.0 0.0 0.00 0.84 0.51 63 1017.6
20260503204153 13 315 0.0 0.0 0.00 0.84 0.51 63 1017.3
20260503203151 13 315 0.0 0.0 0.00 0.84 0.51 63 1017.3
20260503202149 13 315 0.0 0.0 0.00 0.84 0.51 62 1016.9
20260503201147 13 315 0.0 0.0 0.00 0.84 0.51 61 1017.3
20260503200114 13 315 0.0 0.0 0.15 0.84 0.51 61 1017.3
20260503195112 13 270 0.0 0.0 0.15 0.84 0.51 61 1017.3
20260503194110 13 292 0.0 0.0 0.15 0.84 0.51 62 1017.3
20260503193109 13 292 0.0 0.0 0.15 0.84 0.51 62 1017.3
20260503192107 13 292 0.0 0.0 0.15 0.84 0.51 62 1017.4
20260503191035 13 292 0.0 0.0 0.15 0.84 0.51 63 1017.4
20260503190033 13 270 0.0 0.0 0.10 0.79 0.46 63 1017.7
20260503185030 13 337 0.0 0.0 0.05 0.74 0.41 64 1018.1
20260503183956 13 292 0.0 0.0 0.10 0.66 0.36 64 1018.2
20260503182922 13 315 0.0 0.0 0.10 0.66 0.36 64 1018.2
20260503181921 13 270 0.0 0.0 0.10 0.66 0.36 64 1018.6
20260503180918 13 337 0.0 0.0 0.10 0.66 0.36 64 1018.6
20260503175916 13 292 0.0 0.0 0.10 0.66 0.36 64 1018.6
20260503174913 13 292 0.0 0.0 0.10 0.66 0.36 63 1018.6
20260503173809 13 292 0.0 0.0 0.10 0.66 0.36 63 1018.6
20260503172734 13 337 0.0 0.0 0.10 0.66 0.36 63 1018.3
20260503171700 13 337 0.0 0.0 0.10 0.61 0.30 62 1018.6
20260503170657 13 337 0.0 0.0 0.10 0.61 0.30 63 1019.0
20260503150501 13 315 0.0 0.0 0.10 0.41 0.10 66 1019.4
20260503131406 14 337 0.0 0.0 0.05 0.30 0.33 76 1020.3
20260503130404 14 315 0.0 0.0 0.05 0.30 0.33 76 1020.2
20260503110308 14 292 0.0 0.0 0.10 0.25 0.28 71 1020.1
20260503100225 14 292 0.0 0.0 0.15 0.25 0.28 75 1019.4
20260503090108 15 337 0.0 0.0 0.15 0.15 0.15 79 1020.0